When you browse on this site, cookies collect data to enhance your experience and personalize the content and advertising you see.
Visit our Privacy Policy to learn more. By continuing to use the site, you agree to this use of cookies and data.
  • En España
  • Lista de países
  • Para 7 días
  • Temperatura del agua
  • Mapa Satelital
  • El tiempo en el mapa
  • Informadores
  • user-avatar
    Iniciar sesión

    Tiempo cada hora Lashkar Gah

    Hoy, 16 Enero, Miércoles

    Tiempo Temperatura Precipitaciones Viento Presión Humedad
    00:00 +16°C° 0 mm 0 mps 695 mmHg 19%
    01:00 +15°C° 0 mm 0 mps 694 mmHg 20%
    02:00 +16°C° 0 mm 1 mps 694 mmHg 21%
    03:00 +16°C° 0 mm 1 mps 694 mmHg 22%
    04:00 +15°C° 0 mm 1 mps 694 mmHg 24%
    05:00 +15°C° 0 mm 1 mps 694 mmHg 25%
    06:00 +14°C° 0 mm 1 mps 694 mmHg 26%
    07:00 +14°C° 0 mm 1 mps 694 mmHg 28%
    08:00 +16°C° 0 mm 1 mps 695 mmHg 25%
    09:00 +19°C° 0 mm 1 mps 696 mmHg 22%
    10:00 +20°C° 0 mm 1 mps 697 mmHg 20%
    11:00 +20°C° 0 mm 2 mps 697 mmHg 19%
    12:00 +21°C° 0 mm 2 mps 696 mmHg 19%
    13:00 +23°C° 0 mm 2 mps 696 mmHg 18%
    14:00 +23°C° 0 mm 2 mps 696 mmHg 18%
    15:00 +23°C° 0 mm 2 mps 696 mmHg 18%
    16:00 +23°C° 0 mm 2 mps 696 mmHg 19%
    17:00 +21°C° 0 mm 1 mps 695 mmHg 21%
    18:00 +19°C° 0 mm 1 mps 695 mmHg 24%
    19:00 +18°C° 0 mm 1 mps 695 mmHg 26%
    20:00 +16°C° 0 mm 1 mps 695 mmHg 26%
    21:00 +16°C° 0 mm 1 mps 695 mmHg 27%
    22:00 +15°C° 0 mm 1 mps 695 mmHg 27%
    23:00 +15°C° 0 mm 2 mps 695 mmHg 26%

    Mañana, 17 Enero, Jueves

    Tiempo Temperatura Precipitaciones Viento Presión Humedad
    00:00 +15°C° 0 mm 2 mps 695 mmHg 26%
    01:00 +14°C° 0 mm 3 mps 695 mmHg 25%
    02:00 +14°C° 0 mm 3 mps 695 mmHg 25%
    03:00 +13°C° 0 mm 3 mps 694 mmHg 25%
    04:00 +13°C° 0 mm 3 mps 694 mmHg 26%
    05:00 +13°C° 0 mm 4 mps 694 mmHg 26%
    06:00 +13°C° 0 mm 4 mps 694 mmHg 27%
    07:00 +13°C° 0 mm 4 mps 694 mmHg 27%
    08:00 +15°C° 0 mm 4 mps 695 mmHg 25%
    09:00 +17°C° 0 mm 5 mps 696 mmHg 23%
    10:00 +20°C° 0 mm 5 mps 696 mmHg 20%
    11:00 +21°C° 0 mm 5 mps 696 mmHg 20%
    12:00 +22°C° 0 mm 5 mps 695 mmHg 19%
    13:00 +23°C° 0 mm 5 mps 695 mmHg 19%
    14:00 +25°C° 0 mm 4 mps 694 mmHg 19%
    15:00 +25°C° 0 mm 4 mps 694 mmHg 19%
    16:00 +25°C° 0 mm 4 mps 693 mmHg 19%
    17:00 +22°C° 0 mm 5 mps 693 mmHg 20%
    18:00 +21°C° 0 mm 5 mps 693 mmHg 21%
    19:00 +20°C° 0 mm 6 mps 693 mmHg 22%
    20:00 +19°C° 0 mm 6 mps 693 mmHg 23%
    21:00 +19°C° 0 mm 6 mps 692 mmHg 23%
    22:00 +19°C° 0 mm 6 mps 692 mmHg 23%
    23:00 +19°C° 0 mm 6 mps 692 mmHg 24%

    Pasado mañana, 18 Enero, Viernes

    Tiempo Temperatura Precipitaciones Viento Presión Humedad
    00:00 +19°C° 0 mm 6 mps 692 mmHg 25%
    01:00 +17°C° 0 mm 6 mps 692 mmHg 26%
    02:00 +17°C° 0.1 mm 5 mps 691 mmHg 32%
    03:00 +17°C° 0.1 mm 5 mps 691 mmHg 38%
    04:00 +17°C° 0.1 mm 4 mps 691 mmHg 44%
    05:00 +17°C° 0.3 mm 4 mps 691 mmHg 49%
    06:00 +15°C° 0.3 mm 4 mps 691 mmHg 55%
    07:00 +15°C° 0.3 mm 4 mps 692 mmHg 60%
    08:00 +17°C° 0.1 mm 4 mps 692 mmHg 55%
    09:00 +19°C° 0.1 mm 5 mps 693 mmHg 50%
    10:00 +21°C° 0.1 mm 6 mps 694 mmHg 44%
    11:00 +21°C° 0 mm 6 mps 694 mmHg 42%
    12:00 +22°C° 0 mm 6 mps 693 mmHg 39%
    13:00 +22°C° 0 mm 6 mps 693 mmHg 36%
    14:00 +22°C° 0 mm 5 mps 693 mmHg 34%
    15:00 +22°C° 0 mm 5 mps 693 mmHg 32%
    16:00 +22°C° 0 mm 4 mps 692 mmHg 30%
    17:00 +20°C° 0 mm 3 mps 693 mmHg 29%
    18:00 +19°C° 0 mm 3 mps 693 mmHg 28%
    19:00 +17°C° 0 mm 2 mps 693 mmHg 27%
    20:00 +17°C° 0.1 mm 2 mps 693 mmHg 30%
    21:00 +16°C° 0.1 mm 2 mps 692 mmHg 33%
    22:00 +16°C° 0.1 mm 2 mps 692 mmHg 35%
    23:00 +16°C° 0 mm 3 mps 692 mmHg 44%

    19 Enero, Sábado

    Tiempo Temperatura Precipitaciones Viento Presión Humedad
    00:00 +14°C° 0 mm 3 mps 692 mmHg 52%
    01:00 +14°C° 0 mm 4 mps 692 mmHg 61%
    02:00 +13°C° 0 mm 4 mps 692 mmHg 65%
    03:00 +13°C° 0 mm 4 mps 691 mmHg 69%
    04:00 +12°C° 0 mm 4 mps 691 mmHg 74%
    05:00 +12°C° 0 mm 4 mps 691 mmHg 73%
    06:00 +12°C° 0 mm 4 mps 691 mmHg 73%
    07:00 +12°C° 0 mm 4 mps 692 mmHg 72%
    08:00 +14°C° 0 mm 4 mps 692 mmHg 65%
    09:00 +17°C° 0 mm 4 mps 693 mmHg 57%
    10:00 +19°C° 0 mm 5 mps 693 mmHg 50%
    11:00 +20°C° 0.1 mm 5 mps 693 mmHg 46%
    12:00 +21°C° 0.1 mm 5 mps 692 mmHg 42%
    13:00 +22°C° 0.1 mm 5 mps 692 mmHg 38%
    14:00 +21°C° 0 mm 5 mps 691 mmHg 37%
    15:00 +21°C° 0 mm 5 mps 691 mmHg 37%
    16:00 +21°C° 0 mm 5 mps 691 mmHg 36%
    17:00 +20°C° 0 mm 4 mps 691 mmHg 38%
    18:00 +18°C° 0 mm 4 mps 691 mmHg 41%
    19:00 +17°C° 0 mm 4 mps 691 mmHg 43%
    20:00 +16°C° 0 mm 3 mps 691 mmHg 47%
    21:00 +14°C° 0 mm 3 mps 690 mmHg 50%
    22:00 +15°C° 0 mm 2 mps 690 mmHg 54%
    23:00 +14°C° 0 mm 2 mps 690 mmHg 58%

    20 Enero, Domingo

    Tiempo Temperatura Precipitaciones Viento Presión Humedad
    00:00 +13°C° 0 mm 1 mps 690 mmHg 61%
    01:00 +13°C° 0 mm 1 mps 690 mmHg 65%
    02:00 +12°C° 0 mm 2 mps 690 mmHg 59%
    03:00 +11°C° 0 mm 3 mps 691 mmHg 52%
    04:00 +11°C° 0 mm 4 mps 691 mmHg 46%
    05:00 +10°C° 0 mm 4 mps 692 mmHg 43%
    06:00 +10°C° 0 mm 4 mps 692 mmHg 40%
    07:00 +8°C° 0 mm 4 mps 693 mmHg 37%
    08:00 +9°C° 0 mm 5 mps 694 mmHg 32%
    09:00 +12°C° 0 mm 5 mps 694 mmHg 28%
    10:00 +13°C° 0 mm 6 mps 695 mmHg 24%
    11:00 +12°C° 0 mm 7 mps 695 mmHg 21%
    12:00 +14°C° 0 mm 7 mps 694 mmHg 18%
    13:00 +13°C° 0 mm 8 mps 694 mmHg 16%
    14:00 +14°C° 0 mm 7 mps 694 mmHg 17%
    15:00 +12°C° 0 mm 7 mps 694 mmHg 19%
    16:00 +12°C° 0 mm 7 mps 693 mmHg 20%
    17:00 +11°C° 0 mm 6 mps 694 mmHg 23%
    18:00 +10°C° 0 mm 5 mps 694 mmHg 26%
    19:00 +10°C° 0 mm 4 mps 695 mmHg 29%
    20:00 +8°C° 0 mm 4 mps 695 mmHg 31%
    21:00 +8°C° 0 mm 4 mps 695 mmHg 34%
    22:00 +7°C° 0 mm 4 mps 695 mmHg 36%
    23:00 +7°C° 0 mm 3 mps 695 mmHg 37%

    21 Enero, Lunes

    Tiempo Temperatura Precipitaciones Viento Presión Humedad
    00:00 +7°C° 0 mm 3 mps 695 mmHg 39%
    01:00 +5°C° 0 mm 3 mps 695 mmHg 41%
    02:00 +5°C° 0 mm 3 mps 694 mmHg 42%
    03:00 +5°C° 0 mm 2 mps 694 mmHg 43%
    04:00 +5°C° 0 mm 2 mps 694 mmHg 45%
    05:00 +4°C° 0 mm 2 mps 695 mmHg 46%
    06:00 +4°C° 0 mm 2 mps 695 mmHg 47%
    07:00 +4°C° 0 mm 2 mps 695 mmHg 48%
    08:00 +5°C° 0 mm 2 mps 696 mmHg 43%
    09:00 +6°C° 0 mm 2 mps 696 mmHg 39%
    10:00 +7°C° 0 mm 2 mps 696 mmHg 35%
    11:00 +8°C° 0 mm 2 mps 696 mmHg 32%
    12:00 +9°C° 0 mm 2 mps 695 mmHg 29%
    13:00 +10°C° 0 mm 2 mps 695 mmHg 26%
    14:00 +10°C° 0 mm 2 mps 694 mmHg 25%
    15:00 +10°C° 0 mm 2 mps 694 mmHg 24%
    16:00 +11°C° 0 mm 1 mps 694 mmHg 23%
    17:00 +11°C° 0 mm 1 mps 694 mmHg 25%
    18:00 +10°C° 0 mm 1 mps 694 mmHg 27%
    19:00 +9°C° 0 mm 1 mps 694 mmHg 30%
    20:00 +9°C° 0 mm 1 mps 694 mmHg 31%
    21:00 +8°C° 0 mm 1 mps 694 mmHg 33%
    22:00 +8°C° 0 mm 1 mps 694 mmHg 35%
    23:00 +7°C° 0 mm 1 mps 694 mmHg 37%
    Mostrar más